Home   Weather   Osage City   Past weeks

Flag for USA Past Weather in Osage City, Kansas, USA — Yesterday and Last 2 Weeks

Now
47 °F

Clear.


Feels Like: 46 °F
Forecast: 38 / 70 °F
Wind: 3 mph from North

Location: Forbes Field

Current Time: Apr 23, 2017 at 1:04:06 am

Latest Report: Apr 22, 2017 at 11:53 pm


Visibility: 10 mi

Pressure: 30.19 "Hg

Humidity: 64%

Dew Point: 35 °F

Location of Osage CityLocation

Past Weather in Osage City — Graph

°F

Osage City Temperature Yesterday

Maximum temperature yesterday: 67 °F (at 2:53 pm)
Minimum temperature yesterday: 47 °F (at 11:53 pm)
Average temperature yesterday: 57 °F

High & Low Weather Summary for the Past Weeks

 TemperatureHumidityPressure
High82 °F (Apr 9, 4:53 pm)97% (Apr 19, 3:53 am)30.35 "Hg (Apr 19, 3:53 am)
Low36 °F (Apr 11, 4:53 am)29% (Apr 22, 4:53 pm)29.51 "Hg (Apr 9, 5:53 am)
Average64 °F67%29.97 "Hg
* Reported Apr 7 11:53 pm — Apr 22 11:53 pm, Osage City, Weather by CustomWeather, © 2017

Note: Actual official high and low records may vary slightly from our data, if they occured in-between our weather recording intervals... More about our weather records

Advertising

Osage City Weather History for the Previous 24 Hours

Scroll right to see more
 ConditionsComfort  
Time TempWeatherWind HumidityBarometerVisibility
11:53 pm
Sat, Apr 22
47 °FClear.3 mph64%30.19 "Hg10 mi
10:53 pm52 °FClear.7 mph55%30.19 "Hg10 mi
9:53 pm55 °FClear.5 mph44%30.17 "Hg10 mi
8:53 pm57 °FClear.5 mph39%30.15 "Hg10 mi
7:53 pm61 °FSunny.9 mph32%30.14 "Hg10 mi
6:53 pm64 °FSunny.14 mph29%30.12 "Hg10 mi
5:53 pm66 °FPassing clouds.17 mph31%30.11 "Hg10 mi
4:53 pm67 °FSunny.15 mph29%30.10 "Hg10 mi
3:53 pm67 °FSunny.14 mph30%30.10 "Hg10 mi
2:53 pm67 °FSunny.12 mph31%30.12 "Hg10 mi
1:53 pm65 °FScattered clouds.18 mph34%30.14 "Hg10 mi
12:53 pm63 °FPassing clouds.17 mph41%30.16 "Hg10 mi
11:53 am61 °FPassing clouds.15 mph41%30.17 "Hg10 mi
10:53 am58 °FSunny.16 mph50%30.17 "Hg10 mi
9:53 am54 °FSunny.15 mph59%30.17 "Hg10 mi
8:53 am52 °FSunny.10 mph66%30.16 "Hg10 mi
7:53 am50 °FOvercast.10 mph68%30.15 "Hg10 mi
6:53 am50 °FOvercast.10 mph68%30.12 "Hg10 mi
5:53 am51 °FMostly cloudy.9 mph63%30.09 "Hg10 mi
4:53 am51 °FOvercast.13 mph63%30.08 "Hg10 mi
3:53 am52 °FMostly cloudy.12 mph61%30.06 "Hg10 mi
2:53 am51 °FLight rain. Overcast.8 mph66%30.06 "Hg10 mi
1:53 am52 °FOvercast.10 mph61%30.07 "Hg10 mi
Weather by CustomWeather, © 2017

See weather overviewHow to use our weather pages